Simultaneous Nadir Overpasses (SNOs) Predictions

Prediction of SNOs between GOES-15 and METOP-C Satellite Orbit:

Table of predicted SNOs for the next 14.0 days since TLE Epoch: 10/25/2019
Index Date Time (GOES-15) GOES-15 Lat,Lon METOP-C Lat,Lon Distance(km) Time Diff (sec)
1 10/26/2019 17:50:47 -0.28,-128.35 -1.09,-124.86 398.36 80
2 10/28/2019 06:09:47 0.28,-128.38 0.07,-129.45 121.57 80
3 10/29/2019 05:46:26 0.28,-128.39 1.14,-124.44 449.43 80
4 10/30/2019 18:05:18 -0.28,-128.42 -0.12,-129.01 68.39 80
5 11/02/2019 06:06:18 0.27,-128.46 0.24,-128.61 17.55 80
6 11/04/2019 18:04:31 -0.27,-128.48 -0.34,-128.19 34.02 80
7 11/06/2019 06:23:29 0.26,-128.51 -0.72,-132.77 485.79 80
8 11/07/2019 06:00:10 0.26,-128.52 0.41,-127.78 84.38 80




NCC Satellite Simultaneous Nadir Overpasses (SNOs) Prediction Service
